• In Moldova, Republic
  • List of Countries
  • For 7 days
  • Water Temperature
  • Satellite Maps
  • Weather Map
  • Weather Widgets
  • user-avatar
    Login

    Hourly Weather Buda-Lyushevskaya

    Today, 24 October, Wednesday

    Time Temperature Precipitation Wind Pressure Humidity
    00:00 +3°C° 0.4 mm 7 mps 730 mmHg 80%
    01:00 +3°C° 0.4 mm 6 mps 729 mmHg 81%
    02:00 +3°C° 0.4 mm 6 mps 728 mmHg 83%
    03:00 +4°C° 0.8 mm 6 mps 727 mmHg 85%
    04:00 +4°C° 0.8 mm 6 mps 726 mmHg 87%
    05:00 +5°C° 0.8 mm 5 mps 725 mmHg 88%
    06:00 +5°C° 1.3 mm 5 mps 725 mmHg 89%
    07:00 +5°C° 1.3 mm 5 mps 725 mmHg 90%
    08:00 +5°C° 1.3 mm 4 mps 725 mmHg 91%
    09:00 +5°C° 1 mm 4 mps 725 mmHg 88%
    10:00 +5°C° 1 mm 4 mps 725 mmHg 86%
    11:00 +6°C° 1 mm 4 mps 725 mmHg 83%
    12:00 +6°C° 0.2 mm 4 mps 725 mmHg 81%
    13:00 +6°C° 0.2 mm 4 mps 725 mmHg 78%
    14:00 +6°C° 0.2 mm 4 mps 725 mmHg 76%
    15:00 +7°C° 0 mm 3 mps 725 mmHg 79%
    16:00 +5°C° 0 mm 3 mps 725 mmHg 83%
    17:00 +5°C° 0 mm 2 mps 725 mmHg 87%
    18:00 +5°C° 0 mm 2 mps 726 mmHg 88%
    19:00 +4°C° 0 mm 2 mps 726 mmHg 90%
    20:00 +4°C° 0 mm 2 mps 726 mmHg 92%
    21:00 +4°C° 0 mm 2 mps 727 mmHg 93%
    22:00 +3°C° 0 mm 3 mps 727 mmHg 93%
    23:00 +2°C° 0 mm 3 mps 728 mmHg 94%

    Tomorrow, 25 October, Thursday

    Time Temperature Precipitation Wind Pressure Humidity
    00:00 +1°C° 0 mm 4 mps 728 mmHg 93%
    01:00 +1°C° 0 mm 4 mps 729 mmHg 92%
    02:00 +2°C° 0 mm 5 mps 730 mmHg 91%
    03:00 +2°C° 0 mm 5 mps 730 mmHg 88%
    04:00 +2°C° 0 mm 6 mps 731 mmHg 85%
    05:00 +2°C° 0 mm 6 mps 731 mmHg 82%
    06:00 +2°C° 0.1 mm 7 mps 732 mmHg 80%
    07:00 +2°C° 0.1 mm 7 mps 732 mmHg 79%
    08:00 +2°C° 0.1 mm 7 mps 733 mmHg 77%
    09:00 +2°C° 0 mm 7 mps 734 mmHg 75%
    10:00 +2°C° 0 mm 7 mps 734 mmHg 73%
    11:00 +3°C° 0 mm 7 mps 735 mmHg 70%
    12:00 +3°C° 0 mm 6 mps 735 mmHg 70%
    13:00 +3°C° 0 mm 6 mps 735 mmHg 70%
    14:00 +3°C° 0 mm 5 mps 735 mmHg 70%
    15:00 +3°C° 0 mm 5 mps 735 mmHg 71%
    16:00 +3°C° 0 mm 4 mps 735 mmHg 72%
    17:00 +3°C° 0 mm 4 mps 735 mmHg 73%
    18:00 +3°C° 0 mm 3 mps 735 mmHg 74%
    19:00 +4°C° 0 mm 2 mps 735 mmHg 76%
    20:00 +5°C° 0 mm 1 mps 734 mmHg 77%
    21:00 +5°C° 0 mm 1 mps 734 mmHg 79%
    22:00 +4°C° 0 mm 2 mps 734 mmHg 81%
    23:00 +3°C° 0 mm 2 mps 734 mmHg 83%

    Day after tomorrow, 26 October, Friday

    Time Temperature Precipitation Wind Pressure Humidity
    00:00 +4°C° 0.1 mm 1 mps 734 mmHg 85%
    01:00 +4°C° 0.1 mm 1 mps 734 mmHg 86%
    02:00 +4°C° 0.1 mm 1 mps 734 mmHg 88%
    03:00 +4°C° 0 mm 1 mps 735 mmHg 89%
    04:00 +4°C° 0 mm 1 mps 735 mmHg 89%
    05:00 +4°C° 0 mm 1 mps 735 mmHg 90%
    06:00 +4°C° 0 mm 1 mps 736 mmHg 89%
    07:00 +3°C° 0 mm 2 mps 737 mmHg 88%
    08:00 +3°C° 0 mm 2 mps 737 mmHg 87%
    09:00 +3°C° 0 mm 3 mps 738 mmHg 81%
    10:00 +4°C° 0 mm 3 mps 738 mmHg 75%
    11:00 +5°C° 0 mm 4 mps 739 mmHg 70%
    12:00 +5°C° 0.1 mm 4 mps 739 mmHg 70%
    13:00 +5°C° 0.1 mm 4 mps 739 mmHg 71%
    14:00 +5°C° 0.1 mm 5 mps 739 mmHg 72%
    15:00 +5°C° 0 mm 4 mps 739 mmHg 75%
    16:00 +5°C° 0 mm 4 mps 740 mmHg 77%
    17:00 +5°C° 0 mm 3 mps 740 mmHg 80%
    18:00 +5°C° 0 mm 3 mps 740 mmHg 81%
    19:00 +5°C° 0 mm 3 mps 740 mmHg 82%
    20:00 +5°C° 0 mm 3 mps 741 mmHg 84%
    21:00 +5°C° 0 mm 4 mps 741 mmHg 84%
    22:00 +5°C° 0 mm 4 mps 740 mmHg 84%
    23:00 +5°C° 0 mm 4 mps 740 mmHg 85%

    27 October, Saturday

    Time Temperature Precipitation Wind Pressure Humidity
    00:00 +5°C° 0 mm 5 mps 740 mmHg 84%
    01:00 +3°C° 0 mm 6 mps 740 mmHg 84%
    02:00 +3°C° 0 mm 6 mps 739 mmHg 83%
    03:00 +4°C° 0.1 mm 7 mps 739 mmHg 83%
    04:00 +4°C° 0.1 mm 7 mps 738 mmHg 82%
    05:00 +4°C° 0.1 mm 7 mps 737 mmHg 82%
    06:00 +5°C° 0.1 mm 8 mps 737 mmHg 82%
    07:00 +6°C° 0.1 mm 8 mps 736 mmHg 82%
    08:00 +6°C° 0.1 mm 8 mps 736 mmHg 82%
    09:00 +7°C° 0.3 mm 8 mps 736 mmHg 78%
    10:00 +7°C° 0.3 mm 9 mps 736 mmHg 73%
    11:00 +8°C° 0.3 mm 9 mps 736 mmHg 69%
    12:00 +7°C° 0.1 mm 9 mps 737 mmHg 66%
    13:00 +7°C° 0.1 mm 9 mps 737 mmHg 62%
    14:00 +7°C° 0.1 mm 9 mps 738 mmHg 59%
    15:00 +6°C° 0 mm 8 mps 738 mmHg 63%
    16:00 +6°C° 0 mm 7 mps 739 mmHg 66%
    17:00 +5°C° 0 mm 6 mps 740 mmHg 70%
    18:00 +5°C° 0 mm 6 mps 741 mmHg 71%
    19:00 +4°C° 0 mm 6 mps 741 mmHg 72%
    20:00 +5°C° 0 mm 5 mps 742 mmHg 73%
    21:00 +3°C° 0 mm 5 mps 743 mmHg 75%
    22:00 +4°C° 0 mm 4 mps 743 mmHg 78%
    23:00 +3°C° 0 mm 3 mps 744 mmHg 80%

    28 October, Sunday

    Time Temperature Precipitation Wind Pressure Humidity
    00:00 +3°C° 0 mm 3 mps 745 mmHg 82%
    01:00 +2°C° 0 mm 3 mps 745 mmHg 85%
    02:00 +3°C° 0 mm 2 mps 746 mmHg 87%
    03:00 +3°C° 0 mm 2 mps 746 mmHg 88%
    04:00 +2°C° 0 mm 2 mps 747 mmHg 88%
    05:00 +2°C° 0 mm 2 mps 747 mmHg 89%
    06:00 +2°C° 0 mm 2 mps 748 mmHg 88%
    07:00 +4°C° 0 mm 1 mps 749 mmHg 88%
    08:00 +4°C° 0 mm 1 mps 749 mmHg 87%
    09:00 +5°C° 0 mm 1 mps 750 mmHg 81%
    10:00 +6°C° 0 mm 1 mps 750 mmHg 76%
    11:00 +7°C° 0 mm 1 mps 751 mmHg 71%
    12:00 +8°C° 0 mm 1 mps 751 mmHg 69%
    13:00 +8°C° 0 mm 1 mps 751 mmHg 67%
    14:00 +9°C° 0 mm 1 mps 752 mmHg 65%
    15:00 +8°C° 0 mm 1 mps 752 mmHg 68%
    16:00 +7°C° 0 mm 1 mps 752 mmHg 71%
    17:00 +6°C° 0 mm 2 mps 753 mmHg 74%
    18:00 +6°C° 0 mm 2 mps 753 mmHg 75%
    19:00 +5°C° 0 mm 2 mps 753 mmHg 76%
    20:00 +5°C° 0 mm 2 mps 753 mmHg 76%
    21:00 +4°C° 0.4 mm 3 mps 753 mmHg 78%
    22:00 +4°C° 0.4 mm 3 mps 753 mmHg 80%
    23:00 +4°C° 0.4 mm 3 mps 754 mmHg 82%

    29 October, Monday

    Time Temperature Precipitation Wind Pressure Humidity
    00:00 +4°C° 0.8 mm 3 mps 753 mmHg 84%
    01:00 +4°C° 0.8 mm 4 mps 753 mmHg 85%
    02:00 +3°C° 0.8 mm 4 mps 753 mmHg 87%
    03:00 +3°C° 1 mm 4 mps 753 mmHg 87%
    04:00 +2°C° 1 mm 5 mps 753 mmHg 87%
    05:00 +2°C° 1 mm 5 mps 752 mmHg 88%
    06:00 +2°C° 0.2 mm 5 mps 752 mmHg 87%
    07:00 +2°C° 0.2 mm 6 mps 752 mmHg 86%
    08:00 +2°C° 0.2 mm 6 mps 752 mmHg 85%
    09:00 +3°C° 0.1 mm 6 mps 751 mmHg 85%
    10:00 +3°C° 0.1 mm 6 mps 751 mmHg 85%
    11:00 +3°C° 0.1 mm 6 mps 750 mmHg 84%
    12:00 +3°C° 0 mm 6 mps 750 mmHg 85%
    13:00 +3°C° 0 mm 6 mps 749 mmHg 86%
    14:00 +3°C° 0 mm 6 mps 749 mmHg 86%
    15:00 +3°C° 0.1 mm 5 mps 748 mmHg 88%
    16:00 +3°C° 0.1 mm 5 mps 748 mmHg 89%
    17:00 +3°C° 0.1 mm 5 mps 748 mmHg 90%
    18:00 +5°C° 0.1 mm 5 mps 747 mmHg 91%
    19:00 +5°C° 0.1 mm 5 mps 747 mmHg 92%
    20:00 +5°C° 0.1 mm 4 mps 747 mmHg 93%
    21:00 +5°C° 0 mm 4 mps 747 mmHg 94%
    22:00 +6°C° 0 mm 4 mps 746 mmHg 94%
    23:00 +6°C° 0 mm 4 mps 746 mmHg 95%

    30 October, Tuesday

    Time Temperature Precipitation Wind Pressure Humidity
    00:00 +6°C° 0 mm 4 mps 746 mmHg 95%
    01:00 +7°C° 0 mm 3 mps 746 mmHg 95%
    02:00 +8°C° 0 mm 3 mps 746 mmHg 96%
    03:00 +8°C° 0 mm 3 mps 746 mmHg 95%
    04:00 +8°C° 0 mm 3 mps 746 mmHg 95%
    05:00 +8°C° 0 mm 3 mps 746 mmHg 94%
    06:00 +8°C° 0 mm 3 mps 746 mmHg 94%
    07:00 +8°C° 0 mm 3 mps 746 mmHg 93%
    08:00 +8°C° 0 mm 2 mps 746 mmHg 93%
    09:00 +9°C° 0 mm 2 mps 747 mmHg 88%
    10:00 +12°C° 0 mm 2 mps 747 mmHg 82%
    11:00 +13°C° 0 mm 2 mps 748 mmHg 77%
    12:00 +14°C° 0 mm 2 mps 748 mmHg 76%
    13:00 +13°C° 0 mm 3 mps 748 mmHg 75%
    14:00 +14°C° 0 mm 3 mps 748 mmHg 74%
    15:00 +13°C° 0 mm 3 mps 748 mmHg 79%
    16:00 +12°C° 0 mm 4 mps 748 mmHg 85%
    17:00 +11°C° 0 mm 4 mps 748 mmHg 90%
    18:00 +10°C° 0 mm 4 mps 749 mmHg 91%
    19:00 +9°C° 0 mm 5 mps 749 mmHg 92%
    20:00 +9°C° 0 mm 5 mps 749 mmHg 92%
    21:00 +9°C° 0 mm 6 mps 749 mmHg 92%
    22:00 +9°C° 0 mm 6 mps 749 mmHg 91%
    23:00 +8°C° 0 mm 6 mps 749 mmHg 91%
    Show more